If you wish to contribute or participate in the discussions about articles you are invited to join SKYbrary as a registered user

 Actions

Balkhash Airport

From SKYbrary Wiki

UAAH
Airport
ICAO: UAAH – IATA: BXH
Summary
Name Balkhash Airport
Region Asia and Pacific
Territory Kazakhstan KZ.gif
Location Balkhash
Serving Balkhash
Elevation 441 m
1,446.85 ft
1,446.85 ft441 m
Coordinates 46° 53' 36.00" N, 75° 0' 18.00" E
Runways
Designator Length Width Surface ROPS
5/23 2502 m8,208.661 ft
40 m131.234 ft
CON /


METAR
Observation UAAH 270830Z 22011G16MPS 4600 FU NSC 11/04 Q1007 R23/0///60 NOSIG RMK QFE717/0956
Station Balkhash Airport
Date/Time 27 October 2020 08:30:00
Wind direction 220°
Wind speed kts
Lowest cloud amount n/a
Temperature 11°C
Dew point 4°C
Humidity 62%
QNH 1007 hPa
Weather condition n/a

Description

Balkhash Airport or Balqash Airport is an airport 6 km northeast the city of Balqash in Kazakhstan.